Time,TemperatureF,DewpointF,PressureIn,WindDirection,WindDirectionDegrees,WindSpeedMPH,WindSpeedGustMPH,Humidity,HourlyPrecipIn,Conditions,Clouds,dailyrainin,SolarRadiationWatts/m^2,SoftwareType,DateUTC
2013-12-13 00:00:00,14.0,7.0,-100.00,SW,225,8.0,-999.0,72,-99.99,,,-99.99,0.000000,,2013-12-13 05:00:00,
2013-12-13 00:43:00,14.0,7.0,-100.00,SW,225,8.0,-999.0,72,-99.99,,,-99.99,0.000000,,2013-12-13 05:43:00,
2013-12-13 00:53:00,14.0,7.0,-100.00,SW,225,8.0,-999.0,72,-99.99,,,-99.99,0.000000,,2013-12-13 05:53:00,
2013-12-13 01:00:00,16.0,10.0,-100.00,SW,225,10.0,-999.0,74,-99.99,,,-99.99,0.000000,,2013-12-13 06:00:00,
2013-12-13 01:43:00,16.0,10.0,-100.00,SW,225,10.0,-999.0,74,-99.99,,,-99.99,0.000000,,2013-12-13 06:43:00,
2013-12-13 01:52:00,16.0,10.0,-100.00,SW,225,10.0,-999.0,74,-99.99,,,-99.99,0.000000,,2013-12-13 06:52:00,
2013-12-13 02:00:00,18.0,11.0,-100.00,SW,225,9.0,-999.0,74,-99.99,,,-99.99,0.000000,,2013-12-13 07:00:00,
2013-12-13 02:42:00,18.0,11.0,-100.00,SW,225,9.0,-999.0,74,-99.99,,,-99.99,0.000000,,2013-12-13 07:42:00,
2013-12-13 02:52:00,18.0,11.0,-100.00,SW,225,9.0,-999.0,74,-99.99,,,-99.99,0.000000,,2013-12-13 07:52:00,
2013-12-13 03:00:00,17.0,10.0,-100.00,SW,225,9.0,-999.0,73,-99.99,,,-99.99,0.000000,,2013-12-13 08:00:00,
2013-12-13 03:42:00,17.0,10.0,-100.00,SW,225,9.0,-999.0,73,-99.99,,,-99.99,0.000000,,2013-12-13 08:42:00,
2013-12-13 03:52:00,17.0,10.0,-100.00,SW,225,9.0,-999.0,73,-99.99,,,-99.99,0.000000,,2013-12-13 08:52:00,
2013-12-13 04:00:00,17.0,10.0,-100.00,SW,225,9.0,-999.0,72,-99.99,,,-99.99,0.000000,,2013-12-13 09:00:00,
2013-12-13 04:43:00,17.0,10.0,-100.00,SW,225,9.0,-999.0,72,-99.99,,,-99.99,0.000000,,2013-12-13 09:43:00,
2013-12-13 04:54:00,17.0,10.0,-100.00,SW,225,9.0,-999.0,72,-99.99,,,-99.99,0.000000,,2013-12-13 09:54:00,
2013-12-13 05:00:00,17.0,9.0,-100.00,SW,225,9.0,-999.0,70,-99.99,,,-99.99,0.000000,,2013-12-13 10:00:00,
2013-12-13 05:43:00,17.0,9.0,-100.00,SW,225,9.0,-999.0,70,-99.99,,,-99.99,0.000000,,2013-12-13 10:43:00,
2013-12-13 05:53:00,17.0,9.0,-100.00,SW,225,9.0,-999.0,70,-99.99,,,-99.99,0.000000,,2013-12-13 10:53:00,
2013-12-13 06:00:00,18.0,10.0,-100.00,SW,225,9.0,-999.0,70,-99.99,,,-99.99,0.000000,,2013-12-13 11:00:00,
2013-12-13 06:43:00,18.0,10.0,-100.00,SW,225,9.0,-999.0,70,-99.99,,,-99.99,0.000000,,2013-12-13 11:43:00,
2013-12-13 06:53:00,18.0,10.0,-100.00,SW,225,9.0,-999.0,70,-99.99,,,-99.99,0.000000,,2013-12-13 11:53:00,
2013-12-13 07:00:00,16.0,9.0,-100.00,SW,225,7.0,-999.0,71,-99.99,,,-99.99,0.000000,,2013-12-13 12:00:00,
2013-12-13 07:42:00,16.0,9.0,-100.00,SW,225,7.0,-999.0,71,-99.99,,,-99.99,0.000000,,2013-12-13 12:42:00,
2013-12-13 07:53:00,16.0,9.0,-100.00,SW,225,7.0,-999.0,71,-99.99,,,-99.99,0.000000,,2013-12-13 12:53:00,
2013-12-13 08:00:00,17.0,9.0,-100.00,SW,225,9.0,-999.0,70,-99.99,,,-99.99,1.160000,,2013-12-13 13:00:00,
2013-12-13 08:42:00,17.0,9.0,-100.00,SW,225,9.0,-999.0,70,-99.99,,,-99.99,1.160000,,2013-12-13 13:42:00,
2013-12-13 08:52:00,17.0,9.0,-100.00,SW,225,9.0,-999.0,70,-99.99,,,-99.99,1.160000,,2013-12-13 13:52:00,
2013-12-13 09:00:00,16.0,8.0,-100.00,SW,225,9.0,-999.0,70,-99.99,,,-99.99,26.680000,,2013-12-13 14:00:00,
2013-12-13 09:43:00,16.0,8.0,-100.00,SW,225,9.0,-999.0,70,-99.99,,,-99.99,26.680000,,2013-12-13 14:43:00,
2013-12-13 09:53:00,16.0,8.0,-100.00,SW,225,9.0,-999.0,70,-99.99,,,-99.99,26.680000,,2013-12-13 14:53:00,
2013-12-13 10:00:00,17.0,9.0,-100.00,SW,225,7.0,-999.0,69,-99.99,,,-99.99,89.320000,,2013-12-13 15:00:00,
2013-12-13 10:44:00,17.0,9.0,-100.00,SW,225,7.0,-999.0,69,-99.99,,,-99.99,89.320000,,2013-12-13 15:44:00,
2013-12-13 10:54:00,17.0,9.0,-100.00,SW,225,7.0,-999.0,69,-99.99,,,-99.99,89.320000,,2013-12-13 15:54:00,
2013-12-13 11:00:00,19.0,11.0,-100.00,SW,225,8.0,-999.0,68,-99.99,,,-99.99,175.160004,,2013-12-13 16:00:00,
2013-12-13 11:43:00,19.0,11.0,-100.00,SW,225,8.0,-999.0,68,-99.99,,,-99.99,175.160004,,2013-12-13 16:43:00,
2013-12-13 11:53:00,19.0,11.0,-100.00,SW,225,8.0,-999.0,68,-99.99,,,-99.99,175.160004,,2013-12-13 16:53:00,
2013-12-13 12:00:00,21.0,12.0,-100.00,WSW,247,6.0,-999.0,67,-99.99,,,-99.99,180.960007,,2013-12-13 17:00:00,
2013-12-13 12:43:00,21.0,12.0,-100.00,WSW,247,6.0,-999.0,67,-99.99,,,-99.99,180.960007,,2013-12-13 17:43:00,
2013-12-13 12:52:00,21.0,12.0,-100.00,WSW,247,6.0,-999.0,67,-99.99,,,-99.99,180.960007,,2013-12-13 17:52:00,
2013-12-13 13:00:00,23.0,14.0,-100.00,West,270,2.0,-999.0,66,-99.99,,,-99.99,240.119995,,2013-12-13 18:00:00,
2013-12-13 13:42:00,23.0,14.0,-100.00,West,270,2.0,-999.0,66,-99.99,,,-99.99,240.119995,,2013-12-13 18:42:00,
2013-12-13 13:52:00,23.0,14.0,-100.00,West,270,2.0,-999.0,66,-99.99,,,-99.99,240.119995,,2013-12-13 18:52:00,
2013-12-13 14:00:00,26.0,15.0,-100.00,West,270,0.0,-999.0,62,-99.99,,,-99.99,306.239990,,2013-12-13 19:00:00,
2013-12-13 14:42:00,26.0,15.0,-100.00,West,270,0.0,-999.0,62,-99.99,,,-99.99,306.239990,,2013-12-13 19:42:00,
2013-12-13 14:52:00,26.0,15.0,-100.00,West,270,0.0,-999.0,62,-99.99,,,-99.99,306.239990,,2013-12-13 19:52:00,
2013-12-13 15:00:00,30.0,17.0,-100.00,North,-999,0.0,-999.0,58,-99.99,,,-99.99,309.720001,,2013-12-13 20:00:00,
2013-12-13 15:42:00,30.0,17.0,-100.00,North,-999,0.0,-999.0,58,-99.99,,,-99.99,309.720001,,2013-12-13 20:42:00,
2013-12-13 15:53:00,30.0,17.0,-100.00,North,-999,0.0,-999.0,58,-99.99,,,-99.99,309.720001,,2013-12-13 20:53:00,
2013-12-13 16:00:00,28.0,17.0,-100.00,SSE,157,0.0,-999.0,63,-99.99,,,-99.99,97.440002,,2013-12-13 21:00:00,
2013-12-13 16:43:00,28.0,17.0,-100.00,SSE,157,0.0,-999.0,63,-99.99,,,-99.99,97.440002,,2013-12-13 21:43:00,
2013-12-13 16:53:00,28.0,17.0,-100.00,SSE,157,0.0,-999.0,63,-99.99,,,-99.99,97.440002,,2013-12-13 21:53:00,
2013-12-13 18:00:00,26.0,17.0,-100.00,ENE,67,2.0,-999.0,70,-99.99,,,-99.99,0.000000,,2013-12-13 23:00:00,
2013-12-13 18:43:00,26.0,17.0,-100.00,ENE,67,2.0,-999.0,70,-99.99,,,-99.99,0.000000,,2013-12-13 23:43:00,
2013-12-13 18:53:00,26.0,17.0,-100.00,ENE,67,2.0,-999.0,70,-99.99,,,-99.99,0.000000,,2013-12-13 23:53:00,
2013-12-13 19:00:00,25.0,18.0,-100.00,East,90,0.0,-999.0,74,-99.99,,,-99.99,0.000000,,2013-12-14 00:00:00,
2013-12-13 19:42:00,25.0,18.0,-100.00,East,90,0.0,-999.0,74,-99.99,,,-99.99,0.000000,,2013-12-14 00:42:00,
2013-12-13 19:52:00,25.0,18.0,-100.00,East,90,0.0,-999.0,74,-99.99,,,-99.99,0.000000,,2013-12-14 00:52:00,
2013-12-13 20:00:00,25.0,18.0,-100.00,East,90,0.0,-999.0,75,-99.99,,,-99.99,0.000000,,2013-12-14 01:00:00,
2013-12-13 20:42:00,25.0,18.0,-100.00,East,90,0.0,-999.0,75,-99.99,,,-99.99,0.000000,,2013-12-14 01:42:00,
2013-12-13 20:52:00,25.0,18.0,-100.00,East,90,0.0,-999.0,75,-99.99,,,-99.99,0.000000,,2013-12-14 01:52:00,
2013-12-13 21:00:00,25.0,19.0,-100.00,East,90,1.0,-999.0,78,-99.99,,,-99.99,0.000000,,2013-12-14 02:00:00,
2013-12-13 21:42:00,25.0,19.0,-100.00,East,90,1.0,-999.0,78,-99.99,,,-99.99,0.000000,,2013-12-14 02:42:00,
2013-12-13 21:52:00,25.0,19.0,-100.00,East,90,1.0,-999.0,78,-99.99,,,-99.99,0.000000,,2013-12-14 02:52:00,
2013-12-13 22:00:00,25.0,19.0,-100.00,East,90,4.0,-999.0,78,-99.99,,,-99.99,0.000000,,2013-12-14 03:00:00,
2013-12-13 22:44:00,25.0,19.0,-100.00,East,90,4.0,-999.0,78,-99.99,,,-99.99,0.000000,,2013-12-14 03:44:00,
2013-12-13 22:54:00,25.0,19.0,-100.00,East,90,4.0,-999.0,78,-99.99,,,-99.99,0.000000,,2013-12-14 03:54:00,
2013-12-13 23:00:00,25.0,19.0,-100.00,ENE,67,6.0,-999.0,78,-99.99,,,-99.99,0.000000,,2013-12-14 04:00:00,
2013-12-13 23:43:00,25.0,19.0,-100.00,ENE,67,6.0,-999.0,78,-99.99,,,-99.99,0.000000,,2013-12-14 04:43:00,
2013-12-13 23:53:00,25.0,19.0,-100.00,ENE,67,6.0,-999.0,78,-99.99,,,-99.99,0.000000,,2013-12-14 04:53:00,